Probability
3 2 1 0 0 0 0 0 0 0 0 0 0 0 0 0 0 0 0 0 1 9 30 50 56 51 43 36 34 33 31 28 23 15 9 6 4 3 3 3 3 2 1 0 0 0 0 0 0
2 1 1 1 0 0 0 0 0 0 0 0 0 0 0 0 0 0 0 0 2 11 31 50 56 52 44 37 35 34 31 27 22 15 9 5 3 3 3 3 2 1 0 0 0 0 0 0 0
1 0 1 2 1 0 0 0 0 0 0 0 0 0 0 0 0 0 0 0 3 13 30 48 56 53 46 38 35 35 31 26 21 14 8 5 3 3 3 1 1 0 0 0 0 0 0 0 0
0 0 1 2 1 0 0 0 0 0 0 0 0 0 0 0 0 0 0 0 4 13 29 46 56 54 46 39 35 34 30 24 18 13 9 7 5 4 2 1 0 0 0 0 0 0 0 0 0
1 1 3 3 1 0 0 0 0 0 0 0 0 0 0 0 0 0 0 1 5 14 28 45 55 54 46 39 35 32 27 21 15 12 10 9 7 4 2 0 0 0 0 0 0 0 0 0 0
2 2 3 3 1 0 0 0 0 0 0 0 0 0 0 0 0 0 0 1 5 14 26 40 51 52 46 39 33 28 23 17 13 12 10 8 6 4 1 0 0 0 0 0 0 0 0 0 0
1 1 1 1 1 0 0 0 0 0 0 0 0 0 0 0 0 0 1 2 6 14 23 34 42 45 42 37 31 25 19 14 12 11 8 5 4 2 1 0 0 0 0 0 0 0 0 0 0
0 0 0 0 0 0 0 0 0 0 0 0 0 0 0 0 0 0 1 3 7 14 21 28 35 38 36 32 26 20 15 11 9 7 5 4 3 1 0 0 0 0 0 0 0 0 0 0 0
0 0 0 0 0 0 0 0 0 0 0 0 0 0 0 0 0 1 2 4 7 14 21 26 34 37 33 27 21 14 11 8 6 4 3 3 2 1 0 0 0 0 0 0 0 0 0 0 0
0 0 0 0 0 0 0 0 0 0 0 0 0 0 0 0 0 1 2 3 6 13 20 26 34 37 32 25 18 13 9 6 4 3 3 3 1 0 0 0 0 0 0 0 0 0 0 0 0
0 0 0 0 0 0 0 0 0 0 0 0 0 0 0 0 0 0 1 3 5 10 17 25 32 36 32 24 19 16 10 5 3 3 3 2 1 0 0 0 0 0 0 0 0 0 0 0 0
0 0 0 0 0 0 0 0 0 0 0 0 0 0 0 0 0 0 1 3 5 8 14 21 29 34 30 24 20 16 10 5 3 3 3 2 1 0 0 0 0 0 0 0 0 0 0 0 0
0 0 0 0 0 0 0 0 0 0 0 0 0 0 0 0 0 0 2 3 5 6 10 16 24 27 27 23 18 14 10 6 3 3 2 1 0 0 0 0 0 0 0 0 0 0 0 0 0
0 0 0 0 0 0 0 0 0 0 0 0 0 0 0 0 0 0 1 2 3 4 7 13 18 20 23 21 15 12 10 6 3 3 2 0 0 0 0 0 0 0 0 0 0 0 0 0 0
0 0 0 0 0 0 0 0 0 0 0 0 0 0 0 0 0 0 0 1 2 1 4 10 12 15 19 18 12 10 8 5 3 3 2 1 0 0 0 0 0 0 0 0 0 0 0 0 0
0 0 0 0 0 0 0 0 0 0 0 0 0 0 0 0 1 1 0 0 0 0 3 6 8 10 14 15 10 7 5 4 3 3 2 1 0 0 0 0 0 0 0 0 0 0 0 0 0
0 0 0 0 0 0 0 0 0 0 0 0 0 0 0 0 1 1 0 0 0 1 3 4 5 5 8 11 8 4 3 3 3 2 2 1 0 0 0 0 0 0 0 0 0 0 0 0 0
0 0 0 0 0 0 0 0 0 0 0 0 0 0 0 0 0 0 0 0 0 1 4 4 4 3 6 9 8 3 1 2 1 1 1 0 0 0 0 0 0 0 0 0 0 0 0 0 0
0 0 0 0 0 0 0 0 0 0 0 0 0 0 0 0 0 0 0 0 0 1 4 5 5 4 5 8 8 4 1 1 0 0 0 0 0 0 0 0 0 0 0 0 0 0 0 0 0
0 0 0 0 0 0 0 0 0 0 0 0 0 0 0 0 0 0 0 0 0 1 3 5 6 5 4 5 7 5 2 1 0 0 0 0 0 0 0 0 0 0 0 0 0 0 0 0 0
0 0 0 0 0 0 0 0 0 0 0 0 0 0 0 0 0 0 0 0 0 1 3 5 5 4 3 4 5 4 2 1 0 0 0 0 0 0 0 0 0 0 0 0 0 0 0 0 0
0 0 0 0 0 0 0 0 0 0 0 0 0 0 0 0 0 0 0 0 0 1 4 5 4 3 4 4 3 2 1 1 0 0 0 0 0 0 0 0 0 0 0 0 0 0 0 0 0
0 0 0 0 0 0 0 0 0 0 0 0 0 0 0 0 0 0 0 0 0 1 4 6 5 4 4 4 3 1 0 0 0 0 0 0 0 0 0 0 0 0 0 0 0 0 0 0 0
0 0 0 0 0 0 0 0 0 0 0 0 0 0 0 0 0 0 0 0 0 2 5 6 6 4 3 3 2 1 0 0 0 0 0 0 0 0 0 0 0 0 0 0 0 0 0 0 0
0 0 0 0 0 0 0 0 0 0 0 0 0 0 0 0 0 0 0 0 0 1 4 6 6 5 2 1 2 1 0 0 0 0 0 0 0 0 0 0 0 0 0 0 0 0 0 0 0
0 0 0 0 0 0 0 0 0 0 0 0 0 0 0 0 0 0 0 0 0 1 3 5 6 5 2 1 2 2 1 0 0 0 0 0 0 0 0 0 0 0 0 0 0 0 0 0 0
0 0 0 0 0 0 0 0 0 0 0 0 0 0 0 0 0 0 0 0 0 0 1 3 5 5 2 1 2 3 1 0 0 0 0 0 0 0 0 0 0 0 0 0 0 0 0 0 0
0 0 0 0 0 0 0 0 0 0 0 0 0 0 0 0 0 0 0 0 0 0 1 2 4 4 3 2 3 3 2 0 0 0 0 0 0 0 0 0 0 0 0 0 0 0 0 0 0
0 0 0 0 0 0 0 0 0 0 0 0 0 0 0 0 0 0 0 0 0 0 0 1 3 4 3 2 3 2 1 0 0 0 0 0 0 0 0 0 0 0 0 0 0 0 0 0 0
0 0 0 0 0 0 0 0 0 0 0 0 0 0 0 0 0 0 0 0 0 0 1 1 2 3 4 3 2 2 1 0 0 0 0 0 0 0 0 0 0 0 0 0 0 0 0 0 0
Wind_Speed
5 4 4 4 7 10 18 15 12 9 8 8 7 8 9 11 8 2 4 7 11 16 19 22 21 22 21 21 20 19 18 18 17 17 17 16 16 16 15 15 14 14 14 14 15 15 15 15 15
3 4 5 6 10 15 17 17 17 14 7 4 7 10 10 11 8 3 2 8 13 16 18 20 21 21 21 21 20 19 18 18 17 17 17 17 16 16 15 15 14 14 14 15 15 14 14 14 14
4 6 6 7 14 20 17 10 12 11 9 8 7 8 9 7 5 4 2 9 13 16 17 19 21 21 21 20 20 20 19 18 17 17 17 16 16 16 15 15 15 14 15 15 14 14 14 14 13
4 6 7 12 24 24 19 10 6 9 9 9 9 8 6 3 3 1 3 10 13 16 17 19 21 21 21 20 20 19 19 18 18 17 17 17 16 16 15 15 14 14 14 14 14 14 13 13 13
5 6 11 17 27 23 18 15 10 11 11 10 11 11 8 3 2 2 5 10 13 15 17 19 21 22 21 20 20 19 19 18 18 17 17 17 16 16 16 15 14 14 14 14 14 13 13 12 12
6 7 13 21 25 22 18 16 15 16 14 11 11 14 11 3 4 4 6 9 12 14 16 18 21 20 20 20 20 19 19 18 18 17 17 17 16 16 16 15 14 14 14 14 13 12 12 11 11
7 9 17 22 22 21 18 14 16 16 16 13 11 13 10 6 3 4 7 9 11 13 15 16 18 19 19 18 19 19 18 18 17 17 17 16 16 16 15 15 14 13 13 13 12 12 11 11 10
6 7 16 20 21 21 14 12 14 17 17 12 11 12 10 2 3 5 7 8 10 12 14 15 17 18 17 17 17 17 17 17 16 16 14 14 14 15 15 14 13 13 12 12 12 11 11 10 10
7 11 17 19 18 16 11 13 13 12 14 13 12 13 9 3 5 7 7 9 11 12 13 15 16 16 16 16 16 16 15 15 15 14 14 13 12 13 12 12 12 12 12 11 11 11 11 10 9
9 13 20 16 15 14 13 14 13 12 15 15 13 10 6 7 9 11 12 13 14 15 16 15 15 15 15 12 13 12 12 13 13 12 15 11 10 9 9 12 10 11 10 11 10 11 10 7 6
11 16 16 16 14 13 14 14 14 16 17 16 14 10 7 9 12 14 15 15 15 15 14 15 15 15 14 11 10 8 8 9 11 13 13 10 9 8 8 7 8 8 9 8 9 8 6 5 4
13 17 17 15 13 13 14 14 15 18 18 13 13 11 11 13 14 16 16 15 14 14 15 15 15 14 14 12 10 10 8 8 8 10 12 10 7 8 8 6 7 7 5 6 6 4 5 5 5
16 15 16 15 15 15 15 18 18 20 16 12 12 12 14 15 16 15 14 14 14 15 15 15 15 15 13 12 10 10 9 9 10 9 10 11 8 8 8 6 6 7 6 6 5 5 6 5 5
11 14 15 15 16 13 15 18 18 19 15 13 13 14 16 16 17 15 15 15 16 15 15 14 15 15 15 12 11 10 10 9 10 9 11 12 9 8 8 8 7 6 6 6 6 6 5 4 4
11 14 15 15 14 10 10 17 19 16 13 14 14 15 16 17 17 17 17 16 16 16 15 15 15 15 16 14 13 10 9 10 9 9 12 12 10 10 8 7 7 7 6 7 5 6 5 4 4
9 10 11 10 11 8 9 17 16 12 12 15 14 14 14 15 17 17 17 16 15 15 16 16 12 15 16 14 12 9 10 10 9 9 10 12 12 11 9 7 7 7 7 6 5 5 5 5 4
7 9 12 11 8 7 11 17 15 11 13 14 14 14 14 14 16 16 16 16 15 15 16 16 15 15 15 14 12 11 10 10 9 9 9 11 12 12 10 8 7 8 7 6 6 6 5 5 4
8 10 12 12 8 9 14 18 17 13 13 14 14 14 13 13 15 14 14 15 15 15 16 16 15 14 14 12 10 9 10 10 9 9 10 12 11 13 11 8 9 9 7 7 7 7 6 4 4
10 11 13 13 9 9 15 19 18 15 15 15 14 14 14 14 14 12 12 13 14 15 16 17 16 15 13 11 11 11 11 10 10 10 12 13 13 13 11 8 10 9 8 9 9 7 7 5 4
9 11 12 10 7 9 14 18 17 15 15 15 15 15 15 13 11 11 11 12 14 15 16 17 18 16 16 13 12 11 11 9 9 9 11 14 14 13 11 12 10 10 9 10 10 8 6 5 5
9 10 10 10 9 9 11 14 13 12 13 13 14 14 14 13 12 11 11 13 14 16 17 16 18 17 17 15 11 9 8 8 9 11 11 13 14 14 13 13 11 11 10 9 11 10 10 7 6
9 7 8 9 7 6 6 9 10 8 9 10 11 11 12 12 11 10 10 12 14 16 15 17 17 17 17 16 14 16 13 12 13 12 11 13 15 15 14 14 13 12 10 10 11 11 9 8 7
7 6 8 10 9 8 8 9 8 5 8 8 9 9 9 8 9 9 9 10 12 13 13 15 16 16 17 17 18 18 15 13 11 12 14 14 13 15 15 14 13 13 11 12 12 11 11 9 8
5 6 7 6 5 7 7 8 7 3 6 6 6 7 7 7 7 7 7 7 9 10 11 13 15 16 16 18 19 20 19 17 15 15 14 13 11 12 16 15 14 13 12 13 12 12 13 10 10
3 3 2 3 4 6 3 7 7 3 4 5 6 5 5 5 5 6 6 6 7 9 11 12 15 15 16 18 19 21 21 19 18 17 15 14 12 12 16 15 15 14 13 13 12 12 12 12 12
4 4 3 4 5 5 5 8 3 3 4 4 4 5 5 5 5 5 5 6 7 8 10 12 15 15 16 18 18 19 20 15 14 16 14 14 12 13 15 17 16 16 15 13 13 11 12 11 12
4 4 4 5 6 7 6 6 5 4 5 6 7 7 7 6 6 6 5 5 6 7 8 11 14 15 15 17 17 17 19 18 16 16 16 13 13 12 16 16 16 16 15 15 14 11 12 11 11
6 3 3 4 5 7 7 8 4 4 5 6 7 8 8 9 7 7 6 5 6 6 6 9 11 13 15 15 15 13 17 18 17 16 17 16 16 15 15 16 16 16 15 15 14 11 12 12 11
5 4 4 4 5 6 7 5 1 3 4 6 6 7 8 9 9 8 7 6 6 5 5 6 8 11 12 13 14 14 15 16 16 16 17 16 16 16 16 16 16 16 16 15 14 13 13 13 12
6 6 6 5 6 7 8 6 2 3 5 6 7 7 8 9 9 8 7 6 5 5 4 5 6 8 10 11 12 14 15 15 16 16 17 16 16 16 16 16 16 16 15 15 15 14 14 14 13
Wind_Direction
262 210 192 202 220 230 237 231 229 226 225 227 217 216 227 224 219 240 67 163 161 162 165 164 164 161 160 158 155 151 150 148 147 145 143 139 136 133 132 130 127 125 122 117 113 110 106 102 100
250 195 194 212 230 231 235 232 230 232 232 212 215 228 234 237 246 296 122 158 164 163 166 166 162 161 160 159 155 152 151 149 148 145 143 141 139 137 135 132 130 126 122 117 113 111 108 106 103
230 207 210 216 228 233 235 224 235 236 236 228 226 234 240 241 229 235 114 160 166 166 168 163 162 161 160 159 157 154 152 151 149 147 146 144 142 141 138 134 131 127 123 120 116 112 109 109 106
208 201 221 231 233 233 242 238 235 236 228 232 242 239 230 252 285 294 147 170 172 169 169 162 164 163 161 160 158 156 154 153 152 150 148 146 144 142 137 134 131 128 127 123 119 115 112 111 109
224 217 220 232 239 240 240 248 247 246 239 231 237 248 247 231 252 234 188 180 177 172 170 165 165 164 162 161 159 157 156 155 154 152 150 148 144 140 136 134 133 132 130 127 123 121 118 115 113
216 221 227 234 239 240 239 240 244 248 247 244 242 249 255 245 239 214 190 185 179 174 171 166 165 164 163 163 160 158 158 157 156 154 153 148 145 141 138 137 134 135 132 129 127 126 122 118 114
228 228 239 244 247 245 241 238 239 245 246 244 247 254 255 238 223 187 183 181 178 176 173 170 169 167 164 163 160 159 159 158 157 156 152 148 146 144 141 140 138 138 135 133 131 129 125 122 117
241 244 245 244 248 249 244 240 245 249 254 258 252 251 253 229 163 175 177 180 179 179 179 175 174 171 168 165 160 159 159 157 157 153 148 144 145 146 143 144 142 142 140 139 137 133 128 124 120
230 236 240 241 248 255 253 247 246 256 256 255 253 264 285 216 184 183 185 186 184 185 186 182 177 173 170 167 161 161 159 156 155 151 144 149 156 152 151 143 145 145 143 142 140 136 130 127 121
218 236 243 250 259 266 261 258 257 249 247 248 250 255 246 208 201 197 197 194 190 189 189 187 181 174 170 166 164 167 166 163 167 163 161 165 160 151 145 134 142 143 143 143 138 132 137 154 142
225 242 253 257 264 270 264 258 258 252 248 247 251 247 227 222 215 211 208 205 198 192 190 189 184 178 171 167 167 166 166 167 169 167 167 161 154 147 150 152 150 151 156 154 144 154 159 164 147
243 247 255 262 266 267 264 260 255 251 252 259 257 246 229 225 224 220 215 210 204 198 194 193 186 181 176 171 168 167 167 167 167 169 167 163 160 161 160 163 161 162 163 157 163 165 161 166 166
245 251 253 261 264 261 263 258 255 254 256 263 258 241 231 230 228 227 223 216 208 204 199 196 191 184 179 174 170 172 171 170 168 168 172 170 166 167 164 165 165 166 162 164 167 173 168 174 173
256 257 261 262 260 261 259 263 254 250 251 251 250 243 237 234 232 226 223 219 211 205 201 196 195 188 182 179 175 174 173 170 170 171 176 176 172 170 170 168 168 167 169 170 176 179 177 178 181
264 262 260 252 253 257 271 264 250 248 247 250 249 247 242 238 232 226 221 219 213 206 201 197 198 191 186 183 178 175 174 173 173 174 178 179 176 174 174 173 172 171 172 174 179 178 185 180 183
252 249 250 249 243 246 252 260 257 253 249 253 254 249 243 239 233 228 223 220 216 208 203 199 197 194 190 184 179 176 176 176 176 177 179 182 180 179 178 176 177 173 173 178 180 183 187 187 195
227 246 258 265 243 244 247 266 268 255 248 250 251 249 243 241 236 229 222 217 214 208 203 199 197 196 191 185 180 178 177 181 179 179 181 183 183 183 183 183 180 178 181 184 184 191 193 192 197
262 264 265 264 264 263 259 267 275 260 248 249 251 251 244 242 238 230 223 216 213 207 202 199 196 197 191 185 179 177 180 184 183 183 185 184 186 188 189 187 185 183 185 188 189 190 195 199 194
274 267 269 275 279 272 270 270 273 265 250 247 246 249 247 243 242 231 224 216 210 206 202 198 197 196 189 185 181 181 184 184 186 187 188 189 190 189 191 189 188 190 192 192 193 190 190 193 191
268 269 271 281 284 277 278 275 270 260 247 244 244 244 248 244 238 229 221 213 209 207 204 201 199 196 193 193 188 188 186 187 187 187 192 193 193 193 192 193 190 193 195 195 195 192 193 185 192
270 268 276 287 296 279 282 276 260 251 249 246 245 245 245 241 235 227 220 215 211 209 206 202 199 199 197 194 186 180 180 181 188 193 194 197 195 195 195 196 194 195 197 197 197 195 196 192 194
277 275 278 282 279 282 276 284 275 264 251 246 244 244 243 238 235 230 221 218 217 213 206 203 199 201 199 195 190 186 189 192 195 192 193 194 196 197 199 198 198 197 200 201 200 200 201 200 197
269 285 273 271 268 272 257 259 269 263 256 251 246 246 248 243 238 236 225 223 223 216 207 203 201 201 200 197 194 193 199 202 195 191 194 195 196 199 200 200 201 201 202 204 202 200 202 204 206
271 278 269 255 249 250 246 250 266 251 265 269 261 254 250 245 238 236 231 229 230 218 209 204 202 203 201 200 198 198 201 200 195 194 193 194 195 198 201 201 203 204 204 205 204 203 205 206 210
230 272 272 237 225 246 253 253 259 294 293 282 281 279 285 272 252 242 239 229 232 221 212 207 205 205 203 202 203 202 203 202 201 197 197 194 195 197 200 199 204 205 206 205 203 205 206 208 210
242 245 263 279 272 286 264 249 260 336 324 314 312 319 321 311 288 267 253 238 233 227 215 210 208 208 206 205 206 205 203 203 204 202 199 199 199 200 199 200 204 205 204 203 203 205 207 209 211
240 232 273 278 281 269 247 260 275 306 328 340 344 345 339 331 320 299 278 263 253 240 224 217 212 210 208 208 207 208 204 204 205 203 203 203 204 201 200 199 202 204 204 203 202 207 207 208 211
245 274 240 234 263 264 260 263 271 312 330 346 349 345 339 334 328 321 306 289 272 255 243 229 220 215 212 209 207 208 207 206 205 203 204 204 203 201 199 199 201 202 202 202 202 206 208 207 209
222 223 235 239 256 274 273 268 326 314 332 333 333 333 333 332 329 323 317 306 290 273 250 236 231 222 216 213 209 209 209 207 206 206 207 205 204 201 201 200 200 200 201 200 202 205 204 207 208
245 240 234 244 247 254 273 273 310 300 324 328 328 331 331 331 330 325 319 317 311 295 268 249 240 234 225 216 212 211 208 207 207 207 207 206 205 203 201 200 200 200 200 199 201 203 204 206 208